Regional Weather Roundup
Issued by NWS New Orleans/Baton Rouge, LA

Home | Current Version | Previous Version | Text Only | Print | Product List | Glossary On
Versions: 1 2 3 4 5 6 7 8 9 10 11 12 13 14 15 16 17 18 19 20 21 22 23 24 25 26 27 28 29 30 31 32 33 34 35 36 37 38 39 40 41 42 43 44 45 46 47 48 49 50
015
ASUS44 KLIX 191905
RWRLIX
NEW ORLEANS REGIONAL WEATHER ROUNDUP
NATIONAL WEATHER SERVICE NEW ORLEANS LA
200 PM CDT SUN OCT 19 2014

NOTE: "FAIR" INDICATES FEW OR NO CLOUDS BELOW 12,000 FEET WITH NO
      SIGNIFICANT WEATHER AND/OR OBSTRUCTIONS TO VISIBILITY.
      SKY/WX - SKY CONDITION AND SIGNIFICANT WEATHER.
      TMP - AIR TEMPERATURE.     DP    - DEWPOINT TEMPERATURE.
      RH  - RELATIVE HUMIDITY.   PRES  - PRESSURE.
      HI  - HEAT INDEX.          WCI   - WIND CHILL INDEX.

*  THESE STATIONS ARE NOT NWS OR FAA STATIONS AND ARE NOT UNDER
   NWS QUALITY CONTROL.

LAZ038-040-048-061>063-065>067-069-192000-
SOUTHEAST LOUISIANA

CITY           SKY/WX    TMP DP  RH WIND       PRES   REMARKS
N.O. AUDUBON     N/A     76  64  65 MISG        N/A
N.O. INTL ARPT MOSUNNY   76  56  49 NE12      30.07F
N.O. LAKEFRONT SUNNY     75  55  49 E10       30.08F
N.O. DOWNTOWN*   N/A     73  54  49 NE6       30.08F
SLIDELL        SUNNY     76  54  46 N6        30.07F
BATON ROUGE    SUNNY     76  54  46 VRB3      30.08F
BOOTHVILLE     PTSUNNY   75  65  70 NE12      30.06F
BELLE CHASSE   MOSUNNY   76  58  53 E12       30.07F
BOGALUSA*        N/A     75  48  37 NE6       30.10F
NEW ROADS*       N/A     74  54  49 NE5       30.09F
GONZALES*        N/A     75  56  53 NE7       30.07F
HAMMOND*       SUNNY     77  50  38 CALM      30.09F
HOUMA*         MOSUNNY   79  63  57 E6        30.06F
PORT FOURCHON* MOCLDY    77  66  69 E12G17    30.08F

$$

MSZ070-080>082-192000-
SOUTHERN MISSISSIPPI

CITY           SKY/WX    TMP DP  RH WIND       PRES   REMARKS
MCCOMB         SUNNY     72  47  40 N8        30.10F
GULFPORT       SUNNY     74  49  41 VRB3      30.07F
BILOXI         SUNNY     74  50  41 NW2       30.07F
PASCAGOULA     SUNNY     75  47  36 VRB3      30.07F
STENNIS ARPT*  SUNNY     73  48  40 CALM      30.08F

$$

COASTAL OBSERVATIONS
LAKE AND NEARSHORE STATIONS

STATION/POSITION TIME  TEMP    WIND        PRES    WAVE
                       AIR SEA DIR/SP/G            HT/PER
                 (UTC) (F)     (DEG/KT/KT) (MB)    (FT/S)
PASCAGOULA       1900   76      60/  2/  5 1017.7
WAVELAND YACHT   1900   69     160/  6/  7 1017.8
GRAND ISLE       1900   74 78   70/ 13/ 17 1018.3
SOUTHWEST PASS   1900   83 85              1017.6
NEW CANAL        1900   71 72   50/ 10/ 12 1018.8
SHELL BEACH      1900   70 69   70/  9/ 12 1018.3

OFFSHORE STATIONS

STATION/POSITION TIME  TEMP    WIND        PRES    WAVE
                       AIR SEA DIR/SP/G            HT/PER
                 (UTC) (F)     (DEG/KT/KT) (MB)    (FT/S)
64 S DAUPHIN ISL 1801   73 80   70/ 14/ 16 1018.0    4/ 6

$$




USA.gov is the U.S. government's official web portal to all federal, state and local government web resources and services.